Theta_e
332 334 335 336 337 339 340 341 342 344 345 347 348 349 349 349 349 348 349 349 348 346 346 346 345 345 346 346 346 348 349 349 351 350 349 348 350 349 353 357 357 361 363 358 356 366 360 359 359 359 360 359 358 356 357 357 356 354 351 355 351 347 350 354 349 346 344 345 343 341 345 347 354 346 344 343 342 342 341 341 342 342 343 345 351
332 332 334 335 336 338 339 340 344 341 343 345 346 347 348 349 348 348 348 347 347 346 346 346 346 345 345 345 346 346 348 349 348 348 348 349 351 350 352 355 356 357 365 359 363 356 356 359 359 356 359 359 360 363 361 362 354 352 350 351 349 349 349 353 352 343 342 341 339 339 344 344 349 348 344 344 345 346 346 347 348 344 343 342 343
329 331 333 334 336 337 338 340 341 342 343 344 346 346 347 347 348 348 347 346 346 347 346 345 346 347 346 346 346 345 348 351 349 350 351 349 348 349 351 353 354 355 357 363 356 357 356 359 359 360 363 367 355 354 354 354 353 352 352 350 346 346 351 353 357 346 344 344 340 341 334 335 345 344 345 344 344 344 345 345 348 344 344 345 346
328 329 331 333 335 336 338 339 340 341 343 343 344 344 345 347 347 347 346 346 346 347 348 346 347 347 348 347 347 347 345 350 349 349 349 349 347 347 350 352 352 354 355 358 360 357 358 358 358 356 359 360 355 355 355 354 355 353 352 356 346 343 343 348 358 351 348 342 340 336 332 334 331 337 338 344 344 343 345 344 348 345 346 346 346
328 329 331 333 333 335 336 339 340 340 341 342 343 343 345 345 347 347 346 346 346 348 348 346 348 346 347 347 349 347 346 347 345 345 346 349 349 346 346 351 352 353 354 356 362 355 358 359 356 357 354 355 356 356 355 355 355 354 353 354 348 343 343 348 351 358 353 349 344 338 336 334 332 336 335 341 341 344 344 345 350 345 345 346 345
329 329 331 333 334 335 336 339 339 340 341 342 343 344 344 345 346 346 346 346 346 347 347 347 347 344 342 341 340 340 339 340 341 342 342 344 346 347 348 350 351 353 353 355 357 359 356 358 357 360 359 360 362 357 356 356 354 353 352 351 349 345 349 347 347 356 355 357 345 343 344 341 336 337 334 339 343 344 343 345 347 346 346 346 350
329 331 331 332 334 334 335 337 339 340 341 343 344 344 344 345 346 346 345 345 346 346 347 348 346 344 343 342 342 341 340 341 344 344 344 344 346 346 347 349 351 351 353 354 354 360 357 357 357 358 361 358 368 359 357 355 354 353 361 350 349 356 349 349 350 349 353 353 353 351 354 350 344 342 339 336 338 345 343 343 345 346 346 347 348
329 330 331 333 334 334 334 337 339 340 342 343 343 344 344 344 345 345 345 347 346 346 347 348 345 344 343 342 343 341 341 341 342 344 344 347 345 346 346 347 350 351 352 353 354 356 359 356 358 357 359 357 363 358 357 357 358 356 360 357 360 356 349 349 350 349 352 350 358 350 350 350 347 341 341 340 339 336 340 342 346 346 347 347 348
330 329 331 332 333 334 336 336 339 341 342 342 343 344 344 345 345 345 345 346 345 347 347 347 348 345 343 343 342 344 343 343 345 348 346 348 344 345 345 346 349 350 351 352 353 353 362 358 356 356 356 354 369 363 361 360 357 355 357 359 357 355 352 353 352 351 349 351 350 350 348 346 344 344 343 343 343 337 336 337 342 346 349 348 349
330 331 332 332 334 335 337 338 339 340 342 344 344 344 345 345 345 344 343 345 346 346 348 347 347 347 343 343 342 343 344 344 344 343 344 344 343 343 344 346 347 349 350 351 352 352 356 361 356 355 355 355 363 361 358 357 356 355 355 357 355 354 362 357 354 351 352 354 349 349 347 347 346 344 341 342 340 338 336 337 340 340 344 348 350
329 330 332 333 334 335 337 337 338 340 342 343 343 344 344 345 345 343 343 345 346 346 347 346 346 347 344 343 343 342 342 342 341 341 342 342 341 341 343 345 346 347 349 351 350 351 354 360 358 355 356 361 365 360 359 357 355 356 356 356 359 356 358 360 358 357 355 357 351 349 348 343 343 340 342 343 341 340 341 341 343 344 342 343 347
329 330 331 332 333 335 337 337 338 340 341 342 342 343 344 344 344 343 343 344 346 346 347 346 346 346 346 345 343 343 343 342 341 340 341 340 340 340 343 345 345 347 348 348 349 350 355 356 360 358 358 358 358 359 358 357 357 357 356 356 358 358 357 361 355 355 354 354 353 349 347 346 346 343 342 346 347 346 341 342 342 344 345 345 346
328 330 331 331 332 334 335 336 337 339 340 341 342 343 343 343 344 342 342 344 345 346 346 346 346 346 346 345 345 344 343 343 342 341 341 340 340 340 341 343 344 344 345 345 346 348 354 355 356 357 356 359 359 356 357 358 358 357 356 356 357 357 358 356 354 354 354 354 353 352 348 346 345 347 347 346 345 345 346 345 343 344 346 345 348
329 330 331 332 333 335 336 336 337 338 340 341 342 343 343 343 343 343 342 344 345 346 346 345 345 346 347 346 345 346 344 343 342 342 342 341 341 341 340 342 343 344 344 344 346 347 352 355 357 357 358 358 360 357 356 357 358 356 358 358 357 358 357 356 356 357 355 354 353 353 352 350 351 352 350 348 348 347 346 345 347 343 344 345 346
329 331 332 333 334 336 336 337 338 338 340 341 342 342 343 342 342 343 342 343 344 345 346 345 345 346 347 347 346 346 345 344 343 343 343 342 341 341 341 341 343 344 345 346 348 348 351 355 356 357 357 356 358 359 359 358 360 358 358 355 359 358 358 358 356 356 352 353 353 353 354 354 354 355 353 354 350 349 348 348 346 343 339 339 344
331 331 333 334 335 336 337 338 338 338 340 341 341 342 342 342 342 343 342 343 344 346 345 345 345 346 346 346 346 347 349 346 346 348 345 343 342 342 342 342 342 344 345 346 346 349 349 352 356 357 356 354 355 357 357 358 359 358 357 359 358 362 359 357 357 353 353 353 354 355 356 354 355 355 355 355 353 353 351 350 348 345 340 338 339
331 333 333 335 337 337 338 339 339 339 340 340 341 343 343 343 342 342 343 343 344 346 345 346 346 345 346 346 346 346 346 345 344 345 345 345 344 344 343 342 343 344 343 346 345 349 350 351 353 355 355 354 354 356 357 358 359 359 357 357 355 359 360 358 358 355 353 353 354 355 355 356 357 357 354 354 354 355 353 351 349 347 345 341 340
332 333 334 336 337 338 338 339 339 339 340 340 342 343 344 344 343 342 343 342 343 345 345 346 345 345 345 345 346 346 345 345 345 345 346 346 345 345 345 344 343 344 345 344 346 347 349 355 351 352 354 354 354 355 357 357 358 357 356 356 356 357 357 357 357 354 352 355 359 356 356 354 354 353 353 354 356 356 355 355 351 349 348 346 342
330 331 333 335 336 337 338 340 343 342 341 341 342 343 344 345 345 344 343 343 344 345 346 346 346 346 346 346 346 346 346 346 346 346 346 346 345 345 345 345 345 346 347 347 347 346 348 350 352 351 351 353 354 354 357 357 357 356 356 355 356 355 354 354 354 356 356 358 355 353 353 354 353 353 355 355 356 356 354 354 354 352 349 350 346
330 331 333 335 337 339 340 340 340 341 340 341 343 343 344 344 345 344 344 344 345 345 346 345 346 346 346 347 347 347 347 346 346 346 345 345 345 346 346 346 346 348 347 347 347 347 348 348 350 350 350 351 352 353 355 357 357 357 357 356 356 354 352 352 353 359 360 357 356 353 353 353 353 354 355 356 356 356 354 352 351 350 351 351 351
329 330 332 334 336 338 339 340 340 341 342 343 343 343 344 344 345 346 344 343 343 344 345 345 346 346 347 346 346 346 346 347 347 347 345 345 346 347 346 347 349 348 349 348 347 348 348 348 349 351 350 351 351 353 355 357 356 356 356 358 355 353 353 352 356 356 359 356 355 353 353 354 354 354 355 355 356 356 354 352 351 349 350 350 350
329 330 332 333 336 337 338 339 339 339 340 340 342 344 344 345 345 345 345 344 344 344 345 345 346 346 345 346 346 347 347 347 347 346 346 346 345 346 347 347 346 347 349 348 348 348 349 349 348 349 351 350 351 352 353 355 355 355 356 355 355 353 352 351 355 354 355 355 353 352 352 353 354 354 354 354 355 354 353 352 352 351 349 349 349
329 330 331 332 334 336 337 338 338 338 339 340 341 343 344 344 345 346 345 346 347 344 344 346 346 345 345 346 347 347 347 347 346 346 346 346 346 346 348 346 345 345 348 348 348 349 349 349 349 349 350 351 351 352 354 356 355 355 356 356 356 354 352 351 352 353 354 352 350 353 352 353 353 352 351 351 352 352 353 352 352 351 349 348 349
332 331 332 332 334 335 336 337 337 338 339 340 342 344 345 345 345 345 345 347 348 346 346 345 345 346 346 346 346 347 347 346 345 346 346 346 346 346 347 346 346 346 345 347 348 348 349 349 349 351 351 351 351 352 353 355 355 355 356 356 356 354 353 352 352 352 352 351 352 351 351 351 353 350 350 350 350 351 351 351 349 349 348 348 347
332 332 333 334 335 336 336 337 337 338 339 340 339 338 340 343 346 346 346 347 347 347 345 344 345 345 346 346 346 347 346 346 346 346 346 346 346 345 346 346 346 345 345 346 348 348 348 348 348 350 351 351 352 352 352 353 355 356 356 356 356 355 353 353 353 353 354 351 351 351 350 350 351 349 349 349 349 349 349 350 349 347 346 346 347
330 331 333 333 335 337 336 337 338 338 338 337 337 340 341 343 345 347 345 345 346 347 346 346 346 345 345 346 346 346 346 346 346 346 346 346 346 345 344 346 345 345 345 345 346 347 348 347 349 350 351 352 352 353 353 353 355 356 357 357 356 355 353 353 353 352 354 351 351 351 350 349 349 349 348 347 347 347 346 346 347 348 348 347 346
329 332 333 334 334 335 336 337 338 338 338 336 336 337 340 342 344 347 346 346 346 346 346 346 347 347 346 346 346 346 346 346 346 346 346 346 345 345 344 344 346 344 344 344 345 346 350 348 349 350 350 351 352 352 353 353 354 357 357 357 356 354 354 353 352 352 351 351 351 351 349 350 350 349 347 346 346 345 346 345 346 346 347 348 344
329 330 333 334 334 335 335 336 337 338 338 337 337 337 338 339 341 345 346 346 347 347 346 347 347 347 347 347 347 347 347 347 347 347 346 345 345 345 345 345 346 344 343 343 344 344 346 349 349 350 351 353 353 353 353 354 355 356 357 357 356 354 353 352 352 351 350 351 351 351 351 351 351 348 347 345 346 345 344 343 342 343 345 343 338
329 329 330 333 334 334 335 336 338 338 338 339 338 338 339 340 341 344 346 346 347 347 346 347 347 347 347 348 348 349 348 348 348 346 345 345 345 345 345 345 346 345 345 344 344 345 346 348 349 350 351 352 352 352 353 353 354 355 357 357 356 354 352 351 349 349 349 351 352 351 351 350 352 351 350 349 348 345 342 342 341 344 341 337 334
329 330 332 334 336 335 335 336 337 338 338 338 339 339 339 339 341 343 344 346 347 346 346 346 346 346 348 348 348 348 348 347 347 346 346 345 345 345 345 344 344 345 345 346 345 345 345 346 348 349 350 351 352 352 355 356 356 356 357 356 356 354 352 350 348 347 348 350 350 351 352 353 351 351 349 348 343 342 342 343 343 342 338 335 333
329 330 332 335 336 336 336 336 337 338 338 338 339 340 341 341 341 342 343 345 346 345 346 346 346 347 347 348 347 347 347 345 345 346 346 345 345 345 345 344 344 344 344 345 345 343 344 345 346 347 348 349 349 352 353 342 343 351 358 357 354 353 351 349 346 345 343 346 350 352 352 350 349 348 346 345 344 345 344 344 342 340 338 334 330
329 331 332 334 335 335 335 335 336 336 337 338 338 339 340 341 342 342 343 345 345 344 344 344 345 346 347 347 346 346 346 346 345 344 345 345 345 345 344 344 344 343 344 345 345 344 345 345 347 347 347 347 348 349 340 339 341 342 356 357 354 351 346 344 344 346 345 347 348 346 345 346 345 345 344 343 342 341 339 339 338 337 335 333 332
328 331 333 334 335 336 336 336 335 335 336 338 339 339 339 341 341 341 343 341 341 341 341 341 342 343 343 345 345 345 345 345 346 346 346 345 345 344 344 344 344 345 345 344 344 344 345 345 345 345 345 347 348 343 336 337 338 338 345 357 352 345 345 345 346 347 347 346 344 342 341 342 342 341 338 336 335 334 334 333 332 331 329 326 322
329 331 332 332 333 334 336 337 337 337 337 338 339 339 339 340 340 340 340 339 339 339 339 339 340 341 342 343 344 345 344 345 345 346 347 347 345 344 344 345 345 346 345 343 343 343 344 345 345 345 346 346 347 346 335 334 334 336 340 351 351 345 345 346 346 347 345 342 341 339 337 335 334 332 330 327 324 322 321 321 321 322 323 325 326
329 330 331 332 334 336 337 337 337 337 337 337 338 339 337 337 337 337 337 337 338 338 338 338 339 340 341 342 342 343 343 344 345 345 346 346 346 345 345 345 345 345 344 343 342 342 343 345 345 345 345 345 346 338 332 331 330 332 336 350 351 350 347 345 344 342 340 338 338 335 332 329 327 325 323 321 318 318 318 318 318 318 318 319 319
331 331 332 333 335 336 336 336 338 339 337 336 336 337 338 338 339 338 337 337 336 336 337 338 339 340 340 341 342 342 343 344 345 344 344 344 345 346 345 346 347 346 346 345 344 344 343 343 344 344 344 344 346 334 330 329 328 330 336 352 351 350 346 340 338 339 338 337 335 331 328 325 323 322 324 323 321 320 319 318 317 318 319 320 321
333 334 333 335 337 338 337 337 336 336 335 335 337 339 339 339 339 339 339 338 337 336 336 337 340 340 341 341 342 342 343 343 344 344 344 344 345 345 346 347 346 346 345 345 344 343 343 342 343 343 343 344 345 337 327 325 325 326 337 351 350 349 341 338 339 339 337 334 332 329 326 324 323 322 323 320 322 321 316 316 316 316 316 317 317
336 336 336 336 337 337 337 336 334 334 334 335 338 339 339 338 338 339 338 337 337 337 337 337 338 340 342 342 342 342 342 343 343 343 344 344 345 345 345 347 345 345 344 345 345 345 344 343 342 342 343 343 344 339 324 322 322 325 342 349 349 346 340 338 336 335 333 330 330 330 327 322 321 322 322 319 322 320 316 316 315 315 314 313 314
337 338 337 337 337 337 338 336 333 333 334 336 337 337 337 337 338 337 337 335 335 336 336 337 338 339 340 341 342 341 341 342 342 342 342 342 343 343 341 339 339 341 343 344 346 345 344 343 343 343 344 344 345 338 319 320 320 324 340 350 347 342 337 334 331 327 327 328 329 329 328 325 323 322 316 318 321 321 316 315 314 313 312 311 312
339 339 339 338 338 339 335 333 332 332 335 335 335 334 336 335 337 338 337 337 339 341 342 341 341 340 341 342 342 342 342 341 340 340 340 339 339 338 337 340 340 340 341 342 343 342 341 341 341 342 343 345 344 341 329 317 319 322 331 348 344 337 332 329 327 325 325 325 325 325 325 320 317 315 314 315 316 318 316 315 314 311 310 309 312
338 339 343 337 337 336 334 333 332 333 335 335 335 336 336 338 339 338 339 340 340 341 340 339 338 338 338 337 337 337 336 337 337 337 339 340 339 339 338 340 340 340 339 339 338 338 339 339 338 339 339 340 341 340 333 315 316 320 326 335 341 337 331 328 326 327 324 323 322 322 321 317 313 312 312 312 312 315 318 316 313 311 311 314 316
343 344 339 335 335 332 331 331 331 333 334 334 334 335 336 338 338 337 338 338 338 337 337 337 336 335 335 334 335 336 335 335 335 335 333 334 336 340 340 340 340 340 338 338 337 337 336 336 336 337 338 339 340 340 335 318 316 316 320 324 330 330 330 328 325 324 323 321 320 320 320 317 313 312 312 310 311 313 316 318 316 312 313 317 317
337 337 338 335 333 332 331 332 333 335 334 333 335 337 337 338 336 336 336 336 336 336 336 335 335 334 334 334 334 334 334 334 333 333 333 332 333 336 338 339 339 339 338 337 338 337 336 335 335 335 335 337 338 339 327 328 317 315 316 321 324 326 324 330 325 322 320 320 321 321 322 318 311 309 308 309 310 312 318 315 309 311 314 318 317
335 336 337 338 331 331 331 332 334 335 333 332 335 337 338 336 335 336 336 336 336 336 335 334 334 333 333 333 334 333 333 333 333 333 333 332 332 332 333 334 335 336 336 336 336 337 335 335 334 332 332 335 337 337 326 323 322 316 315 318 318 319 321 326 325 321 321 321 320 320 320 310 307 304 307 309 311 317 315 307 310 314 317 317 315
334 334 339 336 331 331 330 331 334 334 332 331 334 338 337 335 335 336 335 334 334 334 334 333 332 332 332 333 333 333 332 333 333 333 331 331 331 331 331 330 331 330 329 329 328 330 331 331 330 329 329 328 328 329 328 323 319 317 316 315 316 317 317 316 323 323 325 322 317 312 307 306 306 306 307 310 311 312 309 310 312 316 319 314 313
333 334 338 333 331 330 330 331 332 333 331 333 334 339 337 335 337 337 335 335 334 334 333 331 331 331 332 333 332 331 329 328 328 331 332 331 330 330 329 329 329 328 328 327 328 329 330 329 326 325 323 322 322 321 321 322 323 322 318 314 313 316 319 320 322 321 319 314 310 308 308 308 311 314 317 317 317 316 316 318 318 318 313 313 312
332 334 338 331 330 329 328 329 330 331 332 334 334 338 337 336 336 336 335 335 335 334 332 331 330 331 332 332 331 328 326 323 321 320 322 327 329 329 328 328 327 327 327 326 326 326 326 326 325 323 322 321 320 320 321 322 322 322 323 323 321 320 317 317 320 317 316 314 315 317 316 315 315 318 319 319 319 319 319 316 314 313 313 312 313
331 333 332 329 329 329 329 329 330 331 333 335 336 337 337 337 336 336 335 335 334 333 331 330 330 331 331 329 328 329 325 321 318 316 314 315 318 323 325 325 325 326 326 326 326 326 326 325 324 323 322 321 320 321 322 322 322 322 322 321 322 321 319 317 315 315 316 319 319 318 317 320 319 318 317 315 314 313 313 312 310 311 312 314 316
330 331 331 329 329 329 328 329 331 331 333 334 335 337 337 337 336 335 334 334 334 333 331 330 331 331 329 327 324 323 322 321 319 316 313 312 312 313 317 324 324 324 327 326 325 325 326 326 325 325 323 321 321 320 321 319 323 317 320 320 319 318 317 317 319 316 319 319 317 316 315 314 313 312 312 310 310 310 312 312 312 312 313 313 312
329 330 329 329 331 328 328 329 329 330 333 333 334 336 337 337 335 334 334 334 334 332 331 330 329 327 326 325 324 323 322 321 320 319 319 317 311 303 305 316 320 317 310 307 312 324 326 326 325 325 326 323 322 322 311 306 305 305 305 309 311 309 310 316 315 314 318 314 313 312 311 311 310 309 308 309 309 309 309 308 309 310 309 308 309
329 329 328 328 327 331 330 331 330 332 333 333 334 335 335 336 335 334 334 334 333 332 329 327 328 327 326 325 323 322 321 321 322 322 323 323 322 318 302 300 307 309 304 300 300 302 307 314 324 319 314 308 308 304 301 301 301 302 302 302 302 304 305 306 309 315 314 312 310 310 310 310 310 309 309 308 309 309 309 308 308 308 309 310 310
Wind_Speed
7 7 8 9 9 9 8 8 8 8 8 10 10 10 10 10 9 9 8 7 8 6 6 6 6 5 3 5 5 4 3 2 3 2 2 2 2 2 2 2 2 2 1 2 2 2 2 2 3 3 2 3 4 4 3 2 2 3 3 1 4 5 5 5 3 2 3 3 4 6 5 5 5 5 5 5 5 4 3 3 4 4 4 5 4
4 5 6 7 7 9 8 8 9 10 9 10 11 11 10 10 10 9 7 8 8 8 8 8 6 6 5 5 4 3 4 4 4 3 3 2 3 3 3 2 2 2 2 2 2 3 1 2 2 2 2 4 4 3 3 2 3 5 4 4 2 3 4 5 5 1 4 2 1 2 4 5 4 4 4 3 3 4 3 3 3 3 5 5 3
5 6 6 7 8 10 9 9 10 12 12 12 10 9 9 9 8 8 8 8 8 8 7 7 6 5 5 4 5 3 2 3 3 2 2 3 3 3 3 3 3 3 3 2 2 2 2 2 3 0 2 2 3 4 4 5 4 4 4 3 4 2 2 3 6 3 2 1 1 2 2 2 2 4 3 2 3 3 3 3 3 3 5 4 3
8 9 9 8 8 9 8 9 9 8 8 9 9 11 9 8 8 9 8 8 8 8 7 6 7 5 4 4 4 3 3 3 2 0 2 2 4 3 3 3 3 3 3 3 2 1 2 3 2 2 2 2 3 3 4 4 4 4 3 2 1 3 4 4 4 4 2 2 2 2 0 1 1 2 3 3 2 2 4 4 4 4 6 7 5
10 8 7 8 9 10 11 10 9 9 10 11 11 10 8 11 11 10 9 9 8 8 8 7 6 5 4 4 3 2 2 3 3 4 3 3 3 3 4 4 4 4 4 3 3 3 2 2 3 2 2 1 2 3 3 3 2 2 1 1 1 1 2 2 3 3 4 1 5 1 2 2 1 3 3 2 4 4 5 4 5 6 7 6 6
12 12 11 12 12 9 7 9 10 10 10 11 11 11 10 9 9 9 7 7 8 8 8 8 7 7 6 6 5 5 5 4 6 7 6 5 5 3 3 4 4 4 4 4 4 3 3 3 3 2 2 2 1 2 2 3 4 4 2 3 2 2 1 3 2 2 3 4 3 1 2 1 1 2 1 2 5 0 3 3 5 6 6 6 5
7 8 8 9 9 9 9 11 11 11 10 9 9 9 9 9 9 10 9 8 7 8 9 8 7 7 9 8 8 8 8 5 4 4 5 5 4 4 4 4 4 5 5 4 4 4 4 3 3 2 2 2 2 2 2 3 2 3 1 2 3 2 2 2 2 3 2 2 3 2 1 1 2 2 1 1 3 3 3 3 4 6 6 7 6
10 9 9 10 11 12 13 12 12 12 10 9 9 9 10 11 11 10 8 8 7 7 9 8 9 8 8 7 6 6 7 7 5 5 4 4 5 5 4 4 5 5 5 5 4 4 4 4 3 2 3 1 1 1 1 2 2 1 1 1 1 1 3 4 2 2 2 2 2 2 2 2 2 2 3 1 2 2 4 4 1 3 5 5 5
11 10 10 11 11 12 11 11 11 10 10 11 11 10 9 9 9 9 9 8 8 9 9 9 8 9 9 7 6 5 5 6 4 3 4 4 5 4 4 5 5 5 5 5 5 4 4 4 4 3 3 3 1 1 1 1 2 3 2 1 1 0 2 2 3 2 2 1 3 2 2 2 2 2 2 3 1 1 3 1 3 3 2 4 4
9 10 11 11 11 12 12 9 9 11 10 10 9 8 9 9 9 9 9 8 8 9 9 9 9 8 8 8 8 6 5 4 4 5 4 4 5 5 5 5 5 5 5 5 4 4 5 4 4 4 4 3 2 2 0 3 3 2 2 3 2 2 1 2 2 3 2 1 1 1 1 2 2 2 2 2 2 1 2 3 2 2 3 3 3
8 8 9 11 11 11 8 11 10 8 8 10 10 10 9 10 10 11 10 8 8 9 10 10 8 8 8 8 9 8 7 6 5 5 4 4 5 5 5 6 5 5 4 4 5 4 5 4 4 4 4 3 3 3 3 2 3 2 2 3 3 4 3 2 2 1 1 1 1 2 2 2 1 0 2 0 1 1 1 2 2 1 1 2 2
9 9 9 9 6 5 7 8 9 10 10 10 9 10 9 10 10 11 9 9 8 9 9 9 9 8 8 8 8 8 7 6 7 6 5 6 6 6 5 4 4 4 4 4 4 4 4 4 4 4 4 4 4 3 2 2 2 1 2 3 3 3 2 2 2 3 2 2 2 2 2 1 1 2 1 1 2 1 1 2 2 2 1 2 1
8 9 8 8 9 9 9 9 8 10 11 12 11 10 10 10 11 11 11 10 10 9 10 9 9 9 8 8 8 6 7 7 6 6 5 6 5 5 5 5 4 4 4 4 5 5 4 5 4 4 5 5 4 4 4 3 3 3 3 4 3 4 4 4 3 4 4 3 4 1 1 1 2 2 2 2 2 2 2 0 1 1 1 2 0
8 9 10 10 10 10 10 9 9 9 10 11 11 10 10 9 11 12 11 10 9 9 10 10 10 9 8 8 7 7 7 6 6 6 6 5 6 6 6 6 6 6 6 6 6 5 5 5 5 5 5 5 5 5 4 4 3 4 3 3 4 4 3 4 4 4 3 3 1 1 0 1 0 1 2 3 3 3 2 2 2 1 1 1 1
5 8 10 10 10 10 10 11 10 10 11 11 10 10 10 10 11 11 10 10 10 11 9 10 9 9 8 8 7 7 7 6 6 6 6 6 5 6 6 5 5 6 6 7 6 6 6 5 6 6 6 6 5 5 4 4 4 4 4 4 3 3 3 4 4 4 3 3 1 0 1 1 1 1 2 3 3 3 3 3 4 3 1 0 1
5 6 7 8 10 10 9 8 8 8 9 9 10 10 11 11 12 13 13 13 11 10 10 10 10 9 9 9 9 8 6 6 6 5 5 6 6 6 6 6 6 6 6 5 6 6 6 7 6 6 6 6 6 6 5 4 4 4 4 4 5 2 3 4 4 3 3 1 2 2 1 1 1 1 1 1 2 2 2 2 3 3 3 3 1
5 5 5 6 6 7 8 9 8 7 7 9 10 11 12 11 11 12 11 10 11 12 11 10 9 9 10 10 9 8 9 8 7 7 7 6 6 6 5 6 6 6 6 5 5 6 6 6 6 6 6 6 6 6 5 5 5 5 5 5 5 3 3 4 2 3 1 2 2 2 2 1 1 0 0 1 1 0 1 1 2 3 4 2 2
6 8 9 9 11 11 9 8 9 9 9 9 9 9 8 8 11 12 10 12 11 11 11 10 11 10 10 10 10 10 9 8 8 7 6 6 6 5 5 5 6 6 6 6 7 7 6 6 6 7 6 6 7 5 5 5 5 5 5 5 4 3 3 1 2 2 2 2 2 2 2 2 1 0 0 1 1 1 1 1 2 2 3 4 3
5 6 6 7 8 8 6 3 2 2 4 6 7 8 10 9 7 8 11 13 13 10 9 9 9 7 7 9 10 9 9 8 8 8 7 7 7 6 6 7 6 6 7 6 6 6 6 7 7 7 5 6 6 6 5 5 5 5 5 5 3 3 4 4 2 2 2 2 3 3 1 1 0 1 0 1 1 0 1 1 0 1 2 3 3
6 5 6 7 7 6 9 4 3 8 6 6 6 7 10 11 12 10 9 7 7 9 10 10 9 8 8 8 9 9 9 9 8 8 7 7 7 7 7 7 7 6 6 8 7 7 7 7 6 6 6 5 6 5 5 5 5 5 5 4 4 4 4 5 3 2 2 3 4 3 2 2 1 1 1 0 0 1 1 1 1 0 0 0 2
6 6 6 7 7 8 12 13 12 14 10 7 7 9 10 9 10 11 10 10 10 10 10 9 9 9 9 10 9 9 9 8 8 8 8 8 7 7 7 6 5 6 6 7 7 8 7 7 7 6 6 6 6 6 5 5 5 6 5 5 5 5 6 4 3 3 2 4 4 4 3 2 1 2 1 1 0 1 1 1 1 1 1 1 2
6 6 5 6 7 10 12 13 12 10 11 12 10 8 8 8 9 9 8 9 10 10 10 9 8 9 11 9 9 8 7 7 9 8 8 7 7 7 7 6 7 7 7 7 8 6 6 7 7 7 6 7 6 7 6 5 6 6 6 4 5 5 5 5 4 4 4 3 4 4 3 2 3 2 1 1 0 0 0 1 0 0 1 1 1
6 5 5 5 6 7 8 10 11 12 11 10 8 7 9 10 8 3 2 3 6 7 8 4 5 7 10 9 8 8 7 8 9 8 9 8 7 7 7 7 7 6 7 7 7 7 7 7 7 7 7 7 7 7 6 6 6 7 7 6 5 6 6 6 6 6 5 4 4 4 4 3 3 2 1 0 1 1 0 1 2 2 1 1 1
4 4 4 5 5 4 4 7 7 8 8 9 7 2 9 12 11 9 6 7 8 8 7 5 5 6 6 7 8 8 9 8 9 8 9 9 8 7 7 7 7 6 7 6 7 8 7 7 8 7 7 7 7 7 6 7 7 7 7 7 6 6 6 6 6 6 6 5 6 5 4 4 4 3 2 2 0 1 1 1 2 1 1 1 1
3 5 5 5 6 7 7 8 9 8 6 3 10 11 8 6 7 9 8 8 8 8 11 12 10 10 8 8 9 8 8 9 9 8 9 8 8 7 6 7 6 7 7 6 7 7 7 7 7 8 7 7 8 8 7 7 6 6 7 7 7 7 6 6 6 7 7 6 6 6 5 6 5 5 4 3 2 3 2 2 2 1 1 1 1
1 1 3 6 6 5 5 6 5 4 4 9 8 7 8 9 9 6 9 9 10 9 9 9 9 10 10 11 10 10 11 10 10 9 10 9 8 8 7 7 7 8 8 7 8 7 7 8 8 8 7 8 8 7 8 8 8 7 7 6 6 6 6 6 6 6 6 6 6 6 6 7 6 6 5 3 3 3 3 2 2 2 2 2 3
1 1 1 1 2 3 2 2 4 6 8 8 8 8 7 7 6 7 7 9 10 8 8 8 9 9 9 11 11 11 11 11 10 10 8 8 8 8 8 8 8 9 8 8 8 8 7 8 8 8 8 8 8 8 8 7 8 7 7 7 7 6 6 5 5 5 5 5 5 5 6 6 6 5 5 4 3 3 2 2 1 3 3 3 4
2 3 3 3 3 3 4 5 6 7 7 7 7 8 8 8 8 7 7 8 8 9 9 9 9 10 10 10 10 9 9 9 8 8 8 9 9 9 9 8 7 8 8 9 8 8 7 6 7 8 8 8 8 8 8 7 7 8 7 7 7 7 7 6 6 6 6 6 7 7 6 6 5 5 4 4 3 2 2 1 1 2 3 6 6
3 3 3 4 5 4 6 7 6 8 9 8 7 7 7 8 9 9 9 10 8 9 9 9 9 9 10 9 8 8 8 7 7 7 8 9 9 9 9 8 8 8 8 9 8 8 7 7 7 8 8 7 8 8 7 7 7 7 6 7 7 7 7 7 8 8 7 8 7 6 6 5 5 5 6 5 4 3 2 2 2 3 6 7 6
3 3 3 5 7 7 7 7 8 8 8 7 7 8 8 9 9 9 9 8 7 8 9 9 10 10 9 8 9 8 9 9 9 9 9 9 9 8 8 9 9 9 9 8 7 8 8 8 9 9 8 7 8 7 9 14 11 7 7 6 6 7 8 8 10 9 9 8 8 7 6 11 9 8 7 7 7 6 5 4 4 5 6 5 5
2 2 4 6 7 7 7 6 6 5 8 9 9 8 7 7 8 8 9 7 6 7 7 8 10 9 7 7 7 8 8 9 10 10 9 10 10 9 9 9 9 9 9 8 8 9 9 9 9 9 9 8 8 7 13 15 15 15 9 7 8 7 8 8 4 4 5 5 8 7 7 10 11 11 9 10 8 9 9 11 11 9 6 7 9
5 5 5 6 6 6 6 7 6 5 6 7 7 6 7 9 7 7 4 2 4 5 5 5 5 5 6 8 8 8 8 8 7 8 9 10 9 9 9 9 9 10 9 8 8 9 9 9 8 9 9 9 9 11 16 16 16 16 13 8 7 7 7 7 6 6 8 9 8 7 7 6 5 8 9 9 11 14 14 16 16 15 14 12 8
5 6 6 6 7 7 7 6 5 6 7 7 5 4 7 6 4 1 3 4 4 4 3 4 5 6 6 5 5 7 9 9 9 9 8 7 9 9 10 10 11 10 8 9 9 9 9 9 9 9 10 10 9 12 15 16 16 16 16 10 7 10 12 12 12 11 10 10 10 8 7 6 7 15 11 8 9 12 16 19 19 19 19 16 14
4 5 6 6 5 5 6 6 6 6 6 5 6 5 2 1 1 2 3 3 4 3 4 6 5 5 6 6 6 6 7 7 7 7 6 6 7 10 10 10 9 8 9 9 9 10 9 9 9 10 9 9 10 12 15 16 16 17 16 12 8 10 10 12 12 12 9 9 10 9 9 7 6 7 7 8 8 8 8 9 8 8 9 14 16
5 6 6 6 7 6 5 4 5 4 4 4 3 2 3 2 3 3 3 4 4 5 6 7 7 6 6 6 6 8 9 8 7 7 7 8 8 8 7 7 8 9 9 10 10 10 9 10 10 10 9 10 10 14 15 16 15 16 16 13 8 8 9 12 10 8 7 9 8 7 9 9 8 8 7 10 10 9 9 8 9 10 10 9 9
6 8 8 7 8 8 8 6 4 3 4 4 4 4 4 4 3 3 4 5 5 6 6 6 7 7 7 8 7 8 8 7 7 7 8 9 9 9 9 7 6 7 8 8 8 8 10 10 10 10 9 10 10 14 15 16 16 16 16 9 9 10 7 8 10 13 11 9 9 10 10 10 10 9 13 17 14 11 10 11 10 10 10 10 10
4 6 8 9 8 7 6 4 3 5 5 5 4 4 4 4 4 5 5 5 5 6 6 6 7 6 7 7 7 8 8 7 7 7 7 7 8 8 8 6 7 7 7 7 8 9 9 10 10 9 10 11 11 13 16 17 16 15 12 7 9 8 10 12 13 12 10 10 10 11 11 11 11 10 15 16 17 16 12 12 11 10 9 10 9
5 4 4 6 5 4 5 4 5 4 4 5 6 6 6 5 6 6 6 6 6 7 6 6 6 5 6 6 7 7 7 7 6 7 7 6 6 5 5 3 6 8 9 9 8 8 7 7 9 10 11 11 11 11 15 16 17 20 18 13 11 11 10 12 10 9 7 7 9 16 15 13 12 12 15 17 17 16 12 11 11 11 10 10 8
7 8 7 6 5 5 5 4 5 6 5 5 6 6 6 7 6 6 5 5 6 6 5 6 6 5 5 5 5 5 6 6 6 6 5 4 1 2 2 1 5 6 7 6 6 7 7 7 7 8 10 11 10 8 13 17 20 23 18 10 10 11 12 11 11 9 9 8 9 13 19 14 14 14 17 16 17 16 13 11 10 11 10 9 7
4 3 4 6 5 5 4 4 5 5 5 5 5 5 6 5 5 4 5 5 5 4 2 1 2 2 2 3 3 3 3 4 4 3 2 1 1 2 5 10 8 5 5 5 6 7 8 7 7 7 8 9 9 7 10 15 19 22 21 14 12 11 11 12 10 13 13 10 8 9 13 18 19 17 16 16 15 17 14 10 8 9 10 9 6
6 6 7 6 5 4 5 5 4 5 6 5 5 5 5 5 5 5 5 1 1 2 3 4 4 4 4 4 4 4 4 4 3 2 1 2 4 5 8 7 6 6 7 6 4 4 5 5 2 3 2 3 3 4 7 15 16 21 22 17 8 11 12 12 10 10 12 12 10 9 10 16 18 17 16 16 16 16 14 10 10 9 9 10 9
4 7 6 6 5 3 3 4 3 4 5 5 5 5 5 5 4 3 2 2 3 3 3 3 4 4 4 4 4 4 4 3 3 3 2 1 3 6 7 7 6 6 6 6 4 3 4 3 0 4 6 5 4 7 6 9 11 5 5 20 13 12 16 15 14 11 10 11 11 10 10 15 20 20 18 17 16 15 15 9 8 13 16 15 10
6 5 3 5 5 4 3 3 3 4 4 5 5 6 6 5 4 4 2 2 3 3 4 5 4 5 5 4 4 5 4 3 4 3 3 2 3 5 5 6 7 7 6 6 6 4 3 3 2 2 1 5 7 7 11 11 15 15 15 18 22 19 23 19 19 15 13 13 11 11 11 18 16 13 17 17 15 16 11 10 16 16 14 16 13
4 5 6 5 4 4 4 3 3 4 4 4 5 6 5 5 5 4 4 4 4 4 4 4 4 4 4 3 4 4 4 4 4 4 3 2 2 2 3 2 1 3 4 4 4 3 4 5 5 3 2 3 4 4 7 12 14 17 18 26 26 27 23 16 16 16 15 14 14 13 15 18 15 14 15 15 15 12 11 15 15 16 16 13 8
7 6 5 4 3 4 3 3 2 4 4 4 4 5 6 6 5 5 5 5 5 4 4 4 3 3 3 2 3 3 4 4 5 4 4 3 2 3 1 2 2 2 2 2 1 2 4 4 3 3 2 4 5 4 3 7 14 19 19 21 27 27 25 26 18 15 14 14 17 24 21 16 15 14 15 14 12 13 16 16 17 16 14 7 8
5 4 4 4 3 2 3 4 2 3 3 4 4 5 6 5 5 6 5 5 5 4 4 3 3 2 2 2 4 5 5 5 6 5 5 3 3 3 2 2 3 3 2 3 3 2 1 2 4 5 6 6 7 8 8 8 7 11 15 22 15 17 31 27 27 21 24 25 24 24 22 20 16 14 11 9 7 9 14 16 15 13 7 7 7
6 6 6 5 4 3 3 4 3 3 3 4 4 5 4 5 6 5 5 5 5 4 4 2 2 2 2 2 3 3 3 5 6 4 5 5 5 4 4 4 3 2 2 2 2 4 5 5 6 6 6 7 8 8 8 8 7 7 7 14 21 12 21 26 18 16 17 16 18 17 15 15 12 14 13 13 13 14 11 9 6 5 5 6 6
4 4 5 5 5 5 4 4 3 3 3 4 4 5 5 6 5 6 5 4 5 4 4 3 2 1 2 2 3 6 6 4 5 5 5 5 6 6 6 5 5 4 2 2 3 4 5 6 7 6 6 7 7 4 4 10 13 12 11 12 10 14 13 12 13 13 13 14 14 16 17 12 11 10 8 7 6 6 7 6 6 6 5 6 9
6 5 6 6 5 4 4 4 3 3 3 4 4 4 5 6 6 6 5 5 4 5 4 4 3 3 3 2 3 3 3 5 5 6 6 6 5 5 4 6 6 4 3 2 3 3 4 5 5 5 7 7 6 7 4 2 7 13 20 15 13 13 12 12 16 21 16 14 14 13 11 10 8 8 7 7 6 6 5 5 7 6 6 6 6
3 4 5 4 3 3 4 4 3 3 4 4 4 4 4 6 6 5 6 5 4 4 4 4 3 2 2 2 2 3 3 3 3 4 6 7 8 11 7 5 4 10 13 11 7 2 2 4 6 4 2 6 9 7 9 13 15 17 17 17 16 16 18 17 18 19 17 15 13 12 11 10 8 7 8 7 7 7 6 6 5 6 6 6 6
5 5 5 4 3 4 4 5 4 4 4 4 4 4 5 5 5 6 6 5 5 4 3 3 3 2 3 2 3 3 3 3 3 3 4 6 6 9 14 14 11 10 11 12 12 12 13 10 6 7 10 16 15 15 14 11 16 18 19 20 18 19 22 22 22 18 13 13 13 11 9 7 7 7 7 7 6 6 6 6 6 5 4 6 7
Wind_Direction
192 183 180 176 171 170 166 164 162 158 160 165 167 171 171 173 167 178 170 159 161 152 158 158 165 169 190 196 207 201 195 196 223 218 213 214 257 284 278 254 268 295 184 123 85 63 44 4 64 49 100 111 101 111 132 105 78 69 35 80 20 10 356 354 53 49 64 40 6 29 14 2 6 19 10 2 357 332 320 318 296 296 283 274 264
128 161 175 160 162 163 160 161 159 159 171 170 176 176 172 173 178 174 163 166 170 171 169 174 177 183 172 189 187 175 193 191 222 227 221 217 218 246 266 256 254 262 278 161 122 111 74 67 70 142 148 101 101 112 110 79 39 39 28 13 52 38 356 343 338 82 31 77 52 349 355 341 357 349 350 14 351 338 335 324 306 300 314 316 303
180 184 172 172 161 162 164 169 176 175 169 176 176 166 170 175 179 173 174 172 176 174 170 176 177 177 176 177 182 159 205 220 205 191 181 220 220 226 244 263 241 247 275 257 169 135 135 141 162 197 66 86 74 43 42 40 44 44 40 57 351 8 332 329 354 36 130 97 74 72 18 14 331 357 338 326 333 332 351 7 352 352 354 6 356
190 185 183 175 166 164 166 173 175 167 166 168 170 174 175 178 177 178 178 178 176 178 175 169 167 157 153 138 154 147 186 175 200 32 153 194 236 225 245 241 239 239 235 253 255 145 150 180 178 147 89 65 103 72 30 25 24 31 25 42 98 353 359 333 3 7 102 156 3 30 239 99 2 336 327 297 299 7 16 10 15 19 16 23 27
192 191 178 169 173 177 177 174 166 171 175 176 176 178 183 183 181 178 177 181 181 178 167 153 148 139 121 93 125 106 56 129 161 250 220 213 223 223 236 218 233 236 239 236 239 204 204 201 166 145 117 110 96 80 42 10 3 354 236 107 213 169 330 307 327 14 34 57 134 125 8 14 212 258 344 287 350 22 1 358 17 27 29 30 34
186 189 185 181 182 174 166 167 175 179 181 182 180 181 178 179 175 175 175 180 182 179 161 158 162 161 158 157 162 187 196 167 195 209 209 205 212 210 224 211 218 231 234 233 246 211 203 216 176 142 132 127 111 81 84 6 353 354 305 210 209 210 162 53 333 355 29 37 90 122 167 173 240 276 57 317 320 172 299 351 27 31 40 43 41
199 194 185 175 177 173 175 178 181 182 187 173 174 177 177 175 176 176 178 181 179 175 165 167 161 174 180 184 186 188 193 210 201 206 200 209 201 204 220 222 217 218 229 221 233 239 209 204 188 176 191 164 130 101 44 341 311 312 308 159 206 146 127 80 7 308 346 26 38 40 10 347 147 117 289 129 346 318 358 349 5 24 42 46 44
186 192 188 185 179 180 186 186 182 183 169 167 172 172 176 177 175 177 178 179 180 169 172 172 170 178 185 191 192 195 198 200 188 198 199 196 193 206 207 222 219 216 219 219 219 239 220 221 190 178 188 227 159 134 227 273 314 330 114 171 120 169 175 138 170 334 96 306 29 34 36 34 36 64 123 145 166 280 319 333 272 27 46 49 42
185 185 188 187 185 190 186 188 183 160 166 174 177 176 172 172 172 173 179 180 178 172 172 178 177 179 183 185 194 200 200 203 193 192 190 198 199 207 201 218 220 222 216 211 212 224 238 222 202 204 210 221 198 137 198 293 308 326 330 22 276 77 239 155 124 164 128 61 344 359 32 43 28 60 87 83 122 148 288 309 317 331 41 52 29
192 189 188 191 191 192 191 174 164 175 168 167 164 160 164 164 170 174 183 184 179 178 174 178 179 176 182 187 191 190 194 203 191 201 202 183 204 205 205 209 214 217 218 213 212 214 237 236 208 213 228 233 229 195 154 316 324 296 258 215 186 253 284 186 164 167 194 195 144 149 15 16 16 51 59 82 61 71 248 304 315 345 348 344 10
192 189 192 196 196 193 169 173 174 156 158 162 163 165 162 168 173 178 185 183 183 182 176 179 182 179 187 186 189 187 186 185 193 218 199 187 208 209 200 209 207 215 206 214 212 215 225 229 219 221 223 235 234 197 215 260 284 292 211 191 203 211 216 183 107 145 182 203 179 184 185 198 163 175 258 231 140 110 60 282 292 214 272 312 25
191 183 187 192 189 174 167 173 164 162 156 163 167 163 165 171 172 177 181 185 185 186 181 181 181 186 187 185 187 187 180 181 193 203 195 199 204 206 202 191 211 217 215 220 227 219 222 231 230 231 235 238 239 218 216 209 266 267 194 204 219 222 212 184 152 171 216 253 261 186 197 176 79 47 59 150 144 180 180 252 271 309 229 235 278
187 184 177 178 183 179 182 180 160 163 170 170 168 167 167 170 173 176 186 185 187 184 187 183 184 188 187 185 186 179 181 185 189 196 191 198 202 203 181 198 193 204 216 216 229 216 213 226 227 221 232 228 227 205 212 212 244 244 225 229 225 217 203 183 183 204 194 208 241 169 116 113 113 171 157 153 160 144 167 213 37 225 229 292 311
191 183 180 179 181 184 184 174 174 175 170 170 168 169 170 172 176 182 188 184 184 187 188 186 191 191 187 183 180 179 185 182 186 191 190 200 197 201 190 194 192 201 200 213 216 205 210 217 214 220 221 223 215 209 204 207 203 217 218 220 224 224 189 196 212 212 210 228 32 207 179 67 163 186 183 169 167 160 167 205 214 232 258 273 333
196 189 183 177 179 177 179 181 181 178 173 172 172 172 170 172 177 184 180 186 185 189 189 191 192 193 189 186 176 179 186 186 188 192 185 191 199 197 203 196 193 206 205 219 209 205 210 210 213 215 218 220 216 210 203 200 204 212 223 232 233 202 197 194 220 206 211 207 166 42 354 5 318 231 212 211 182 199 186 178 167 218 240 3 308
190 200 184 177 177 177 176 176 179 177 177 177 177 170 176 179 180 184 185 184 186 186 192 194 195 191 189 185 183 178 187 188 196 197 194 194 193 197 201 200 207 208 216 218 218 202 207 211 210 217 216 214 212 211 206 196 194 198 213 205 219 179 197 208 226 208 228 144 123 142 135 257 272 278 255 264 220 214 205 152 170 164 198 268 335
165 185 185 170 161 171 179 177 172 169 173 186 186 181 181 175 176 182 185 185 187 190 190 193 193 192 194 189 182 183 186 191 196 197 198 197 196 200 199 204 209 212 216 207 215 210 212 207 209 215 211 211 212 213 205 203 194 197 199 203 220 204 190 218 198 204 196 161 131 150 168 172 225 236 44 59 59 124 177 189 184 188 167 176 213
184 181 183 179 174 181 191 182 177 179 182 190 194 185 176 184 179 178 178 186 192 190 188 188 189 195 196 194 190 188 188 192 195 198 193 193 201 202 204 206 211 210 213 213 209 205 209 209 210 217 211 201 211 208 204 205 193 202 204 208 217 182 197 152 196 192 168 155 115 117 154 170 177 179 21 27 65 60 120 154 177 171 166 198 193
183 184 174 179 195 185 166 103 35 228 218 202 198 184 171 180 186 186 190 192 189 185 185 189 189 189 192 198 192 189 192 193 196 198 193 196 201 194 199 208 209 211 213 215 207 205 202 208 209 214 207 208 206 209 204 205 194 203 203 212 192 177 188 208 204 173 151 151 149 142 171 169 166 131 27 23 43 112 126 118 201 159 178 195 178
190 187 186 187 186 151 104 107 243 281 261 234 212 197 189 179 183 192 191 185 184 191 188 190 191 192 194 194 201 197 192 193 193 194 195 200 202 196 198 204 209 202 208 208 207 204 200 201 202 208 207 207 205 213 202 204 198 209 200 198 190 180 191 208 192 157 152 158 152 160 179 190 168 163 165 27 54 72 75 79 55 21 36 296 143
197 190 187 181 170 162 160 182 203 211 229 237 219 207 203 183 181 189 186 180 187 192 190 195 187 195 195 196 195 196 195 189 187 193 200 204 204 202 201 203 194 205 201 200 206 207 201 201 201 205 205 205 210 213 207 197 197 206 202 196 180 182 191 191 155 164 165 161 161 167 184 204 180 186 181 177 172 67 75 64 56 62 84 75 125
191 196 183 186 189 181 186 192 203 209 218 222 219 203 195 186 192 189 193 192 186 186 192 194 192 194 197 198 199 196 195 192 191 190 196 199 200 204 202 193 198 205 192 199 203 200 198 199 201 203 208 206 207 212 203 194 197 202 201 190 184 180 187 177 164 173 176 171 162 171 189 198 198 204 158 165 29 83 52 145 84 171 177 166 133
200 195 182 185 201 200 198 201 206 214 219 220 221 207 198 200 201 179 154 33 31 20 360 328 239 205 202 199 195 196 194 197 200 197 197 197 200 200 194 195 199 197 193 198 198 199 199 201 207 209 210 209 209 209 203 196 201 201 200 194 188 181 183 175 180 181 181 167 169 175 186 188 193 202 193 89 49 54 143 215 226 223 200 180 120
207 195 178 173 181 191 189 207 217 225 226 218 221 23 32 35 45 65 99 147 145 146 173 221 241 250 229 205 200 197 195 197 204 206 203 199 195 196 193 201 200 193 195 201 203 201 201 200 207 212 208 212 211 211 204 202 202 201 200 197 182 189 193 189 182 177 172 177 174 167 185 192 195 198 199 184 58 112 135 144 162 150 147 158 98
206 200 185 161 164 181 196 198 206 215 215 63 68 92 115 155 171 170 167 159 175 178 188 200 194 196 205 214 210 200 199 201 205 207 212 204 199 194 192 201 198 202 202 197 201 202 203 201 204 208 210 210 212 208 208 207 205 201 201 194 188 188 192 189 182 180 181 175 172 179 173 185 185 185 199 188 150 149 142 160 180 155 130 131 117
208 165 151 177 188 188 194 202 200 189 98 97 122 136 156 182 193 169 171 183 190 193 199 201 205 197 195 202 210 208 208 207 207 208 210 209 205 200 194 198 195 204 205 202 202 197 200 203 209 210 209 212 212 208 206 208 203 196 195 196 190 187 188 186 182 179 178 174 175 176 175 177 179 180 177 161 162 157 153 163 180 196 174 140 125
138 126 100 101 129 181 166 58 62 91 125 142 153 168 174 180 184 191 189 189 196 189 196 199 211 212 205 204 205 209 209 208 208 213 211 208 208 206 201 203 198 203 201 205 206 206 206 205 209 208 210 211 211 207 211 209 207 198 195 191 185 179 177 181 180 177 171 169 169 169 169 169 167 166 161 169 164 166 177 170 197 235 226 170 126
135 143 139 155 155 119 103 127 139 133 136 160 179 182 185 187 199 205 200 201 196 189 196 201 204 212 214 214 212 212 214 213 211 209 211 212 210 210 211 211 204 204 209 209 208 207 208 205 205 206 210 208 204 205 206 209 204 201 195 194 184 179 175 174 174 171 166 165 164 164 161 156 153 152 154 159 158 152 160 139 208 209 222 130 117
177 177 158 148 123 137 159 170 164 154 155 161 171 185 191 201 201 203 203 205 196 194 197 201 204 209 213 209 206 207 206 208 208 207 212 214 212 212 211 209 207 211 212 215 212 210 209 207 209 209 208 205 203 204 203 199 201 200 197 192 185 180 171 172 175 171 166 159 153 148 145 139 136 136 144 142 147 145 146 146 176 175 131 120 109
200 192 170 135 143 164 181 186 182 178 158 162 180 191 196 201 204 203 205 204 185 201 200 204 209 214 211 201 196 196 198 197 200 205 208 210 213 213 212 211 213 213 216 214 213 212 213 211 211 210 207 206 208 208 203 201 199 191 189 189 178 180 175 170 170 161 156 151 149 146 145 146 140 138 132 121 114 115 126 126 137 136 125 110 113
203 213 150 147 163 174 180 187 194 177 173 183 192 191 195 209 212 205 209 203 189 201 207 211 218 217 208 202 202 207 198 196 199 203 205 206 209 209 211 214 216 217 218 219 218 218 218 217 213 210 211 211 214 211 207 201 202 198 184 181 180 174 177 168 99 113 111 144 145 146 139 136 133 126 114 113 113 114 122 116 106 103 105 128 133
187 186 158 160 168 176 187 198 194 187 191 198 203 196 192 213 210 207 193 134 188 215 220 230 248 241 220 207 208 210 213 217 206 206 205 207 206 206 211 212 214 217 218 215 220 221 220 218 215 214 215 216 218 218 208 205 201 198 191 178 170 141 99 82 143 158 160 170 143 130 113 115 125 122 112 109 108 104 98 95 95 92 90 84 78
173 170 175 176 182 192 200 209 197 187 202 214 203 196 217 221 218 110 100 135 159 185 206 231 229 229 227 225 223 216 219 221 220 219 215 207 203 205 210 211 214 215 211 210 217 219 223 221 217 216 220 219 223 220 212 207 202 195 192 169 147 148 162 166 169 175 174 158 143 126 116 115 111 109 107 110 111 103 95 92 88 86 80 75 73
163 172 179 188 189 206 218 210 205 198 197 196 197 212 230 77 111 111 137 133 155 184 209 236 243 243 240 224 224 234 236 234 234 235 232 225 219 219 214 211 213 210 210 214 213 216 221 222 220 219 223 224 221 223 210 207 201 195 188 176 152 162 171 162 168 177 165 148 133 129 126 122 112 102 106 102 96 88 87 79 72 69 77 79 79
151 167 183 186 190 198 206 219 222 196 168 165 183 141 90 108 156 179 176 174 184 201 209 213 226 238 247 250 239 233 237 234 228 231 234 233 230 236 236 227 217 209 209 212 212 213 218 221 223 220 222 226 227 220 209 205 199 189 185 174 166 162 165 172 149 102 115 127 128 141 134 129 125 122 122 123 113 112 103 95 91 84 82 80 73
194 174 180 177 187 190 190 202 202 130 116 131 155 152 146 158 171 190 202 201 203 214 228 225 228 224 225 231 235 237 237 237 236 233 231 232 233 234 235 231 234 238 227 220 220 216 219 221 222 219 218 227 229 218 207 203 192 183 176 173 174 170 139 82 106 145 157 153 148 145 135 131 129 127 132 125 121 117 107 102 94 89 85 77 72
192 160 179 188 186 182 193 180 141 134 134 144 159 161 156 163 190 215 217 224 218 229 235 234 235 231 231 230 230 236 238 237 235 235 235 236 237 239 241 228 229 232 234 233 232 222 222 221 222 219 218 225 230 217 203 197 190 172 164 169 170 154 129 142 153 156 156 154 158 143 132 131 127 131 134 127 125 116 109 107 104 99 95 92 93
134 145 145 163 166 163 177 158 147 143 138 152 161 163 166 184 204 215 222 231 234 241 249 252 257 255 247 237 234 233 235 235 233 239 236 231 229 235 253 221 225 231 229 227 231 239 241 235 226 222 217 221 229 215 196 192 181 173 177 174 169 157 144 147 144 141 139 129 133 139 134 133 132 134 135 129 126 116 111 113 112 110 107 104 102
166 157 150 161 166 160 153 129 137 143 155 159 160 162 170 196 208 211 213 225 236 249 253 251 259 275 279 278 263 250 249 245 243 245 247 253 246 188 110 250 217 215 222 211 207 217 230 227 231 229 230 229 233 218 190 187 181 183 183 170 158 151 147 148 140 122 112 125 126 134 130 129 131 133 133 130 127 120 118 120 122 114 110 108 117
123 74 121 137 137 128 120 136 160 151 153 160 157 156 175 192 206 204 209 222 232 248 268 299 325 306 304 342 335 289 266 258 256 262 287 258 121 123 208 234 234 230 232 212 207 202 210 219 213 218 219 221 224 212 189 193 190 186 177 165 156 140 137 145 148 138 130 122 131 130 125 126 129 132 131 128 124 121 122 124 119 113 122 123 134
148 144 137 135 153 157 168 171 146 139 153 169 169 159 165 170 181 196 210 203 78 39 42 40 41 37 38 44 41 41 39 39 33 351 258 189 182 201 218 233 239 227 239 248 235 236 232 236 199 243 232 224 233 223 198 195 199 194 182 164 151 145 129 118 116 128 129 134 133 132 131 130 129 127 125 124 124 122 124 124 124 133 133 137 133
118 139 135 136 147 130 99 84 109 140 149 164 159 164 164 164 161 162 126 64 56 50 58 55 53 49 40 37 41 43 48 35 29 29 34 354 231 217 216 224 234 227 223 235 235 239 244 269 104 189 225 247 242 212 165 185 213 213 146 121 112 131 145 134 136 135 132 131 132 138 139 134 132 133 133 128 122 120 119 115 131 131 134 134 125
132 125 143 143 154 155 122 114 130 142 150 164 160 156 169 168 159 150 130 104 83 75 75 69 56 54 50 40 33 31 34 35 32 31 16 331 285 256 227 212 222 230 230 229 228 219 216 230 214 164 138 210 212 212 183 181 178 172 175 139 152 160 153 148 146 142 139 133 131 126 121 120 121 128 125 125 125 126 125 133 136 134 129 123 121
105 139 157 152 147 117 126 123 138 151 160 164 163 163 171 159 150 138 135 115 112 99 92 83 75 64 52 37 48 41 33 30 25 20 1 310 288 288 320 321 286 229 224 228 237 235 214 218 220 172 167 200 204 209 181 171 172 170 175 163 164 155 157 145 138 136 138 133 131 128 126 129 133 132 125 126 129 128 132 136 130 127 126 124 119
150 152 159 134 152 146 139 134 138 161 166 170 184 164 171 162 160 144 148 145 137 132 117 111 107 111 90 67 71 65 51 39 28 15 25 16 353 349 0 24 97 103 116 113 99 150 206 196 178 171 102 50 35 39 95 171 177 175 182 176 160 154 149 137 130 133 130 133 130 124 127 128 126 125 123 119 117 124 130 128 129 130 127 119 122
124 135 153 122 126 121 141 149 159 186 173 171 193 161 174 167 164 157 150 154 146 138 123 122 114 91 91 89 85 69 53 43 36 25 22 13 25 24 42 30 56 79 88 144 184 193 252 101 110 74 68 63 56 58 53 57 40 93 71 38 351 164 142 135 128 127 126 125 126 123 124 123 125 128 127 130 126 131 128 127 126 123 122 124 124
160 167 152 133 161 163 166 168 179 203 182 170 169 164 150 150 164 146 150 156 151 131 122 100 90 112 108 85 90 89 73 53 45 21 11 16 14 11 15 23 26 51 88 110 94 107 119 127 122 109 106 103 101 102 98 86 65 29 19 94 101 25 69 90 89 102 108 118 119 121 128 130 132 138 130 126 125 124 120 115 104 108 114 120 121
143 154 137 134 161 178 172 167 182 196 179 161 169 164 149 154 150 154 152 156 147 141 133 136 136 107 72 57 70 78 80 71 59 43 32 13 15 12 24 24 7 7 35 90 126 133 135 138 140 138 134 127 123 136 132 138 135 124 119 111 100 122 115 105 111 118 121 117 117 114 116 118 122 118 118 111 108 106 112 113 112 119 116 120 119
152 157 154 172 174 179 172 159 175 184 165 164 170 155 155 152 149 148 147 151 147 131 126 126 132 115 68 57 63 68 80 90 87 75 67 56 36 25 17 20 20 354 13 62 111 106 125 148 145 135 127 111 124 131 141 112 112 136 139 136 133 131 130 126 135 129 118 113 115 117 117 118 119 122 119 120 116 113 105 109 114 118 117 115 112
157 141 155 158 166 150 150 150 167 168 158 162 153 150 144 151 150 149 154 154 144 128 123 132 124 114 106 75 70 79 80 88 95 103 98 82 77 69 50 39 12 16 44 40 40 84 109 127 101 56 56 146 148 140 119 120 113 93 79 88 104 121 125 127 130 122 121 123 123 125 128 130 129 129 130 130 131 125 125 119 114 117 118 117 119
160 151 172 175 159 152 140 146 155 151 157 162 161 155 152 157 158 161 159 147 136 124 112 123 135 144 138 108 109 91 87 70 77 97 95 101 86 53 46 42 46 45 44 42 50 53 56 48 88 104 72 78 90 95 97 97 98 96 101 107 113 121 124 130 128 121 112 121 129 127 126 126 128 130 131 132 135 136 135 131 127 126 120 126 126